www.pogodaiklimat.ru

Погода и климат >> Архив погоды >> Австрия >> Капфенберг аэропорт


ПОГОДА в Капфенберг аэропорту

  • Прогноз погоды в Капфенберг аэропорту
  • Монитор погоды в Капфенберг аэропорту

АРХИВ ПОГОДЫ в Капфенберг аэропорту

Время (UTC), дата Ветер
(напр.,м/с)
 
Видим.   Явления Облачность Т
(С)
Тd
(С)
f
(%)
Тe
(С)
Тes
(С)
Комфортность P
(гПа)
Po
(гПа)
Тmin
(С)
Tmax
(С)
R
(мм)
R24
(мм)
S
(см)
10 10.08 З 1 н/о н/о +28.0 +17.1 52 +32 +32 душно 1012.3 955.7
11 10.08 СЗ 1 н/о н/о +30.3 +17.0 45 +34 +34 очень
душно
1011.0 954.9
12 10.08 СЗ 1 н/о н/о +31.8 +16.7 40 +35 +35 очень
душно
1010.2 954.4
13 10.08 ЮЗ 4 н/о н/о +32.3 +14.7 35 +34 +34 душно 1010.1 954.3
14 10.08 ЮЗ 4 н/о н/о +32.3 +14.1 33 +34 +34 душно 1010.0 954.2
15 10.08 ЮЗ 3 н/о н/о +32.5 +15.4 36 +35 +35 душно 1010.1 954.4
16 10.08 СВ 5 н/о н/о +30.8 +16.6 42 +34 +34 очень
душно
1010.6 954.6
17 10.08 С 2 н/о н/о +28.9 +17.4 50 +33 +33 очень
душно
1011.5 955.1
18 10.08 СВ 2 н/о н/о +26.4 +17.1 57 +30 +30 душно 1013.4 956.4 +18.5 +33.1
19 10.08 СВ 2 н/о н/о +24.9 +16.5 60 +28 +28 жарко 1015.2 957.8
20 10.08 В 4 н/о н/о +23.5 +15.3 60 +26 +26 жарко 1016.6 958.9 0.0
21 10.08 СВ 3 н/о н/о +23.2 +15.0 60 +27 +27 душно 1016.9 959.1 0.0
22 10.08 СВ 2 н/о н/о +22.7 +15.6 64 +27 +27 душно 1017.1 959.2
23 10.08 В 1 н/о н/о +21.9 +16.1 70 +26 +26 душно 1017.2 959.1
00 11.08 СЗ 1 н/о н/о +20.5 +16.4 77 +25 +25 комфорт 1017.6 959.3 0.0
01 11.08 В 1 н/о н/о +21.0 +16.1 74 +26 +26 душно 1017.6 959.3
02 11.08 СВ 1 н/о в посл. час осадки н/о +20.1 +16.8 81 +24 +24 комфорт 1017.9 959.5 0.1
03 11.08 штиль 0 н/о {осадки} н/о +19.8 +16.9 83 +22 +22 комфорт 1018.3 959.8 0.1
04 11.08 СВ 2 н/о в посл. час осадки н/о +19.2 +15.2 78 +21 +21 комфорт 1019.1 960.4 0.1
05 11.08 СВ 3 н/о н/о +18.5 +14.2 76 +19 +19 1020.0 961.1 0.0
06 11.08 В 2 н/о в посл. час осадки {ливн. осадки} н/о +17.5 +13.7 78 +18 +18 1020.6 961.4 +17.3 +26.6 1
07 11.08 СВ 2 н/о в посл. час осадки н/о +17.5 +14.6 83 +18 +18 1021.1 961.9 0.2
08 11.08 СВ 2 н/о в посл. час осадки н/о +17.9 +14.3 79 +18 +18 1020.7 961.6 0.1
09 11.08 СВ 1 н/о {ливн. осадки} н/о +19.4 +14.3 72 +22 +22 комфорт 1020.3 961.5 0.3
10 11.08 С 1 н/о н/о +20.3 +13.9 67 +24 +24 комфорт 1019.8 961.2
11 11.08 СВ 1 н/о н/о +22.0 +13.6 59 +25 +25 комфорт 1018.7 960.5
12 11.08 штиль 0 н/о {ливн. осадки} н/о +23.7 +10.7 44 +25 +25 комфорт 1017.8 959.9 0.3
13 11.08 СЗ 1 н/о н/о +24.6 +14.5 53 +27 +27 жарко 1016.6 959.0
14 11.08 ЮЗ 2 н/о н/о +25.3 +15.6 55 +28 +28 жарко 1015.9 958.5
15 11.08 З 3 н/о н/о +26.2 +16.7 56 +30 +30 душно 1014.5 957.4
16 11.08 ЮЗ 2 н/о н/о +25.9 +16.1 55 +29 +29 душно 1014.1 957.0
17 11.08 ЮЗ 5 н/о н/о +25.0 +15.9 57 +28 +28 жарко 1013.7 956.4
18 11.08 ЮЗ 2 н/о н/о +24.0 +15.9 61 +27 +27 жарко 1013.8 956.3 +17.3 +26.6 0.3
19 11.08 З 2 н/о н/о +22.5 +16.1 67 +27 +27 душно 1014.5 956.7
20 11.08 В 1 н/о н/о +21.8 +16.2 70 +26 +26 душно 1014.2 956.3
21 11.08 штиль 0 н/о н/о +19.6 +16.1 80 +22 +22 комфорт 1014.2 955.9
22 11.08 В 1 н/о н/о +18.4 +15.7 84 +20 +20 1014.4 955.8
23 11.08 СВ 1 н/о н/о +17.9 +15.7 87 +19 +19 1014.6 955.9
00 12.08 штиль 0 н/о н/о +16.8 +15.1 90 +17 +17 1014.5 955.6
01 12.08 СВ 1 н/о н/о +16.6 +15.0 90 +17 +17 1015.2 956.2
02 12.08 С 1 н/о н/о +16.1 +14.5 90 +17 +17 1014.8 955.7
03 12.08 СВ 1 н/о н/о +15.7 +14.3 91 +16 +16 1015.1 955.9
04 12.08 СЗ 1 н/о н/о +15.1 +13.7 91 +16 +16 1015.6 956.3
05 12.08 СВ 1 н/о н/о +16.2 +14.8 91 +17 +17 1015.7 956.6
06 12.08 СВ 1 н/о н/о +18.7 +15.2 80 +21 +21 комфорт 1015.4 956.8 +14.5 +24.2
07 12.08 СВ 1 н/о н/о +20.6 +15.7 73 +25 +25 комфорт 1015.0 956.8
08 12.08 СЗ 1 н/о н/о +22.4 +16.2 68 +27 +27 душно 1014.0 956.2
09 12.08 З 1 н/о н/о +24.8 +15.8 57 +28 +28 жарко 1013.1 955.8
10 12.08 СЗ 1 н/о н/о +27.7 +16.2 50 +31 +31 душно 1011.9 955.2
11 12.08 С 1 н/о н/о +29.0 +15.8 45 +32 +32 душно 1010.8 954.4
12 12.08 ЮВ 2 н/о н/о +30.5 +15.4 40 +33 +33 душно 1010.3 954.2
13 12.08 З 2 н/о н/о +30.2 +16.2 43 +33 +33 душно 1009.8 953.7
14 12.08 ЮЗ 4 н/о н/о +30.2 +16.2 43 +33 +33 душно 1009.5 953.4
15 12.08 ЮЗ 4 н/о н/о +30.2 +16.8 45 +34 +34 очень
душно
1009.2 953.1
16 12.08 Ю 2 н/о н/о +30.1 +17.0 45 +34 +34 очень
душно
1008.2 952.2
17 12.08 З 2 н/о н/о +29.3 +17.4 49 +33 +33 душно 1008.5 952.3
18 12.08 СЗ 1 н/о н/о +27.4 +17.9 56 +32 +32 очень
душно
1008.8 952.3 +18.6 +30.8
19 12.08 СВ 3 н/о н/о +25.1 +16.5 59 +29 +29 душно 1010.5 953.4
20 12.08 В 3 н/о н/о +24.0 +16.3 62 +27 +27 жарко 1011.1 953.8
21 12.08 В 2 н/о н/о +22.9 +16.0 65 +27 +27 душно 1011.9 954.3
22 12.08 С 1 н/о ливневой дождь {осадки} н/о +20.0 +17.8 87 +24 +24 комфорт 1012.9 954.8 5
23 12.08 В 1 н/о осадки н/о +19.9 +18.2 90 +24 +24 комфорт 1014.4 956.2 0.1
00 13.08 СВ 4 н/о в посл. час осадки {ливн. осадки} н/о +18.7 +16.1 85 +20 +20 1014.2 955.7 5
01 13.08 В 4 н/о н/о +18.2 +15.3 83 +18 +18 1014.5 955.9 0.0
02 13.08 СВ 1 н/о н/о +17.8 +14.6 82 +19 +19 1015.2 956.4 0.0
03 13.08 СВ 1 н/о в посл. час осадки н/о +17.1 +14.6 85 +18 +18 1015.5 956.6 0.1
04 13.08 СВ 2 н/о н/о +16.4 +14.2 87 +16 +16 1015.9 956.8 0.0
05 13.08 З 1 н/о н/о +16.1 +14.2 88 +17 +17 1016.2 957.0
06 13.08 СВ 2 н/о {осадки} н/о +16.8 +14.1 84 +17 +17 1016.5 957.4 +16.1 +28.2 5
07 13.08 СВ 2 н/о н/о +17.3 +14.0 81 +18 +18 1016.7 957.7
08 13.08 С 1 н/о н/о +17.9 +14.1 78 +19 +19 1016.9 958.0 0.0
09 13.08 СЗ 1 н/о в посл. час осадки н/о +18.1 +14.6 80 +19 +19 1017.2 958.4 0.0
10 13.08 В 2 н/о н/о +19.4 +12.3 63 +21 +21 комфорт 1016.6 958.0
11 13.08 В 2 н/о н/о +19.8 +11.1 57 +22 +22 комфорт 1016.6 958.1
12 13.08 В 2 н/о {осадки} н/о +20.1 +10.9 55 +22 +22 комфорт 1016.5 958.0 0.0
13 13.08 СВ 3 н/о н/о +20.5 +10.6 53 +23 +23 комфорт 1016.0 957.6
14 13.08 СВ 3 н/о н/о +20.2 +9.5 50 +22 +22 комфорт 1016.0 957.5
15 13.08 СВ 2 н/о н/о +20.1 +9.8 51 +22 +22 комфорт 1015.8 957.3
16 13.08 СВ 2 н/о н/о +20.0 +9.3 50 +22 +22 комфорт 1015.6 957.1
17 13.08 СВ 2 н/о н/о +19.3 +9.7 54 +21 +21 комфорт 1015.5 956.9
18 13.08 СВ 2 н/о н/о +18.7 +9.2 54 +20 +20 1015.5 956.8 +16.8 +20.6 0.0
19 13.08 З 1 н/о н/о +17.1 +11.5 70 +18 +18 1016.3 957.3
20 13.08 штиль 0 н/о н/о +16.7 +10.7 68 +17 +17 1016.5 957.4
21 13.08 З 1 н/о н/о +16.2 +11.0 71 +17 +17 1016.3 957.1
22 13.08 Ю 1 н/о в посл. час осадки н/о +15.5 +10.5 72 +16 +16 1017.2 957.8 0.1
23 13.08 штиль 0 н/о ливневой дождь н/о +14.8 +11.5 81 +15 +15 1017.0 957.5 0.4
00 14.08 З 1 н/о осадки {ливн. осадки} н/о +14.1 +11.9 87 +14 +14 1017.3 957.6 1
01 14.08 ЮЗ 1 н/о н/о +13.8 +12.0 89 +14 +14 1017.0 957.3 0.0
02 14.08 З 1 н/о в посл. час осадки н/о +13.7 +12.2 91 +14 +14 1017.6 957.8 0.5
03 14.08 Ю 1 н/о в посл. час осадки н/о +13.5 +11.7 89 +14 +14 1017.3 957.5 0.5
04 14.08 СВ 1 н/о в посл. час осадки н/о +13.3 +11.5 89 +13 +13 1017.5 957.6 0.1
05 14.08 В 1 н/о н/о +13.0 +11.2 89 +13 +13 1018.1 958.1
06 14.08 СВ 3 н/о {ливн. осадки} н/о +13.2 +10.8 85 +12 +12 1017.8 957.9 +12.8 +18.8 2
07 14.08 СВ 2 н/о н/о +13.8 +10.8 82 +13 +13 1017.9 958.1
08 14.08 СВ 2 н/о н/о +15.0 +11.0 77 +15 +15 1017.7 958.2
09 14.08 С 1 н/о н/о +17.0 +10.3 65 +18 +18 1017.1 958.0
10 14.08 СВ 1 н/о н/о +18.6 +8.2 51 +20 +20 1016.9 958.1
11 14.08 Ю 2 н/о н/о +18.6 +7.4 48 +19 +19 1017.0 958.1
12 14.08 С 1 н/о н/о +18.8 +7.1 46 +20 +20 1017.4 958.6
13 14.08 С 3 н/о н/о +19.3 +6.3 43 +20 +20 1017.3 958.5
14 14.08 СВ 3 н/о н/о +19.3 +6.0 42 +20 +20 1016.8 958.1
15 14.08 С 1 н/о н/о +20.9 +5.1 36 +23 +23 комфорт 1016.2 957.8
16 14.08 З 2 н/о н/о +20.8 +6.1 38 +22 +22 комфорт 1016.2 957.8
17 14.08 СВ 2 н/о н/о +19.9 +3.5 34 +21 +21 комфорт 1016.3 957.7
18 14.08 З 1 н/о н/о +16.3 +8.3 59 +17 +17 1017.4 958.1 +13.2 +21.3
19 14.08 штиль 0 н/о н/о +13.1 +8.2 72 +13 +13 1019.2 959.1
20 14.08 СВ 1 н/о н/о +11.8 +8.3 79 +12 +12 1020.1 959.7
21 14.08 З 1 н/о н/о +10.3 +7.1 81 +10 +10 1020.7 960.0
22 14.08 СВ 1 н/о н/о +9.8 +7.3 84 +9 +9 1021.1 960.2
23 14.08 З 1 н/о н/о +8.5 +6.6 88 +8 +8 1021.5 960.3
00 15.08 СВ 1 н/о н/о +7.9 +5.8 87 +7 +7 1021.7 960.4
01 15.08 СЗ 1 н/о н/о +7.4 +5.8 90 +6 +6 1021.8 960.4
02 15.08 штиль 0 н/о н/о +6.9 +5.5 91 +6 +6 1021.7 960.2
03 15.08 СЗ 1 н/о н/о +6.3 +4.8 90 +5 +5 1021.7 960.0
04 15.08 СВ 1 н/о н/о +6.1 +4.9 92 +5 +5 1021.7 960.0
05 15.08 З 1 н/о н/о +6.5 +5.1 91 +5 +5 1021.8 960.2
06 15.08 СВ 1 н/о н/о +9.8 +6.5 80 +9 +9 1020.9 960.0 +6.0 +16.9
07 15.08 СВ 1 н/о н/о +11.9 +6.9 71 +12 +12 1019.7 959.3
08 15.08 ЮЗ 1 н/о н/о +13.3 +7.4 67 +14 +14 1018.7 958.7
09 15.08 СЗ 1 н/о н/о +16.8 +8.3 57 +18 +18 1017.1 957.9
10 15.08 СВ 2 н/о н/о +19.1 +8.4 50 +20 +20 1015.6 956.9
11 15.08 З 1 н/о н/о +21.0 +7.8 43 +23 +23 комфорт 1014.2 956.0
12 15.08 штиль 0 н/о н/о +22.7 +6.0 34 +23 +23 комфорт 1013.4 955.5
13 15.08 ЮЗ 2 н/о н/о +23.3 +6.3 33 +24 +24 комфорт 1012.5 954.8
14 15.08 СЗ 1 н/о н/о +24.5 +6.5 31 +24 +24 комфорт 1011.9 954.4
15 15.08 СВ 2 н/о н/о +24.0 +6.9 33 +24 +24 комфорт 1011.9 954.4
16 15.08 В 2 н/о н/о +23.9 +6.5 33 +24 +24 комфорт 1011.8 954.2
17 15.08 З 3 н/о н/о +21.9 +7.4 39 +23 +23 комфорт 1012.8 954.8 0.0
18 15.08 ЮЗ 1 н/о н/о +20.2 +10.6 54 +23 +23 комфорт 1013.5 955.2 +9.0 +24.6 0.0
19 15.08 В 1 н/о н/о +19.1 +10.3 57 +21 +21 комфорт 1014.5 955.9
20 15.08 СВ 1 н/о н/о +17.4 +10.4 63 +18 +18 1015.5 956.5
21 15.08 штиль 0 н/о н/о +15.8 +10.2 69 +16 +16 1016.3 957.0
22 15.08 СВ 1 н/о н/о +14.9 +10.2 73 +15 +15 1017.0 957.5
23 15.08 С 1 н/о н/о +13.0 +9.6 80 +13 +13 1017.8 957.8
00 16.08 С 1 н/о н/о +13.1 +10.2 83 +13 +13 1018.0 958.0
01 16.08 СВ 2 н/о в посл. час осадки н/о +13.4 +10.6 83 +13 +13 1018.0 958.1 0.1
02 16.08 СВ 1 н/о в посл. час осадки н/о +12.6 +10.3 86 +13 +13 1017.8 957.8 0.1
03 16.08 штиль 0 н/о {ливн. осадки} н/о +12.6 +10.7 88 +12 +12 1017.9 957.9 0.2
04 16.08 З 1 н/о н/о +12.4 +10.8 90 +12 +12 1018.3 958.2
05 16.08 СВ 1 н/о н/о +13.1 +11.1 88 +13 +13 1018.7 958.7
06 16.08 С 1 н/о {ливн. осадки} н/о +13.7 +11.0 84 +14 +14 1018.6 958.7 +12.0 +21.4 0.2
07 16.08 штиль 0 н/о осадки н/о +14.4 +11.3 82 +14 +14 1018.7 959.0 0.1
08 16.08 СВ 2 н/о в посл. час осадки н/о +15.2 +11.8 80 +15 +15 1018.6 959.1 0.0
09 16.08 СВ 1 н/о {осадки} н/о +17.4 +12.8 74 +18 +18 1018.2 959.1 0.1
10 16.08 СВ 2 н/о н/о +18.3 +11.4 64 +19 +19 1017.9 959.0
11 16.08 С 2 н/о н/о +18.8 +9.2 54 +20 +20 1018.1 959.2 0.0
12 16.08 З 2 н/о {осадки} н/о +20.3 +7.4 43 +22 +22 комфорт 1017.3 958.8 0.1
13 16.08 СЗ 2 н/о н/о +22.3 +8.0 40 +23 +23 комфорт 1016.1 958.0
14 16.08 СЗ 2 н/о н/о +22.3 +7.4 38 +23 +23 комфорт 1015.8 957.7
15 16.08 С 1 н/о н/о +22.0 +6.1 36 +23 +23 комфорт 1016.0 957.8
16 16.08 ЮЗ 1 н/о н/о +22.2 +6.2 35 +23 +23 комфорт 1015.6 957.5
17 16.08 СЗ 2 н/о н/о +21.9 +7.4 39 +23 +23 комфорт 1015.8 957.6
18 16.08 штиль 0 н/о н/о +17.9 +9.7 59 +18 +18 1016.8 957.9 +13.7 +22.8 0.1
19 16.08 З 1 н/о н/о +14.4 +9.1 70 +15 +15 1018.5 958.8
20 16.08 З 1 н/о н/о +12.6 +8.7 77 +13 +13 1019.5 959.3
21 16.08 штиль 0 н/о н/о +11.9 +8.6 80 +11 +11 1020.1 959.7
22 16.08 штиль 0 н/о н/о +11.1 +8.4 83 +10 +10 1020.3 959.8
23 16.08 СЗ 1 н/о н/о +9.6 +7.5 87 +9 +9 1020.6 959.7
00 17.08 штиль 0 н/о н/о +9.4 +7.9 90 +9 +9 1020.5 959.6
01 17.08 штиль 0 н/о н/о +8.7 +7.3 91 +8 +8 1020.6 959.5
02 17.08 СВ 1 н/о н/о +8.0 +6.7 91 +7 +7 1020.3 959.1
03 17.08 штиль 0 н/о н/о +7.8 +6.4 91 +7 +7 1020.2 959.0
05 17.08 С 1 н/о н/о +9.0 +7.3 89 +8 +8 1020.1 959.1
06 17.08 штиль 0 н/о н/о +10.0 +7.9 87 +9 +9 1019.9 959.2 +6.9 +18.7
07 17.08 СВ 1 н/о н/о +12.3 +8.4 77 +12 +12 1019.3 959.1
08 17.08 С 1 н/о н/о +14.3 +8.5 68 +15 +15 1018.5 958.7
09 17.08 З 1 н/о н/о +16.9 +9.6 62 +18 +18 1017.6 958.4
10 17.08 ЮЗ 1 н/о н/о +19.5 +10.3 55 +22 +22 комфорт 1016.5 957.9
11 17.08 СВ 1 н/о н/о +22.1 +10.9 49 +24 +24 комфорт 1015.0 957.0

 

Местоположение метеостанции Капфенберг аэропорт (Австрия): широта 47.47 долгота 15.33 высота над уровнем моря 515 м.

В архиве по умолчанию представлена погода в Капфенберг аэропорту за последнюю неделю. Архивные данные за месяц целиком и за предыдущие месяцы, начиная с января 2011 года, Вы можете получить, выбрав интересующий диапазон дат из раскрывающегося списка и нажав кнопку "Ввод!".


*Определитесь, кто Вы:
робот инопланетянин человек

Внимание! Время в таблицах - всемирное. Для получения местного времени необходимо прибавить поправку, которая равна 1 ч.

Смотрите также архив погоды в соседних городах и на ближайших метеорологических станциях:

Погода в Капфенберге (Австрия) (3 км)
Погода в Брукк-ан-дер-Муре (Австрия) (7 км)
Погода в Афленц-Курорте (Австрия) (11 км)
Погода в Леобене (Австрия) (21 км)
Погода в Фишбахе (Австрия) (24 км)
Погода в Пребихле (Австрия) (29 км)
Погода на Шёкле (Австрия) (32 км)
Погода в Санкт Радегунд бай Грац (Австрия) (35 км)
Погода в Санкт-Себастьяне (Австрия) (37 км)
Погода в Граце университет (Австрия) (40 км)

Пояснения к столбцам:

Ветер - указаны скорость ветра в м/с - средняя за 10 мин, порывы в срок и между сроками (в фигурных скобках) и направление, откуда дует ветер: С - северный, СВ - северо-восточный, В - восточный, ЮВ - юго-восточный, Ю - южный, ЮЗ - юго-западный, З - западный, СЗ - северо-западный.
Видимость - горизонтальная дальность видимости в метрах или километрах. При видимости от 1 до 10 км при отсутствии осадков обычно наблюдается дымка, при ухудшении видимости до 1 км и менее - туман. В сухую погоду видимость может ухудшаться дымом, пылью или мглою.
Явления - указаны атмосферные явления, наблюдавшиеся в срок или в последний час перед сроком; фигурными скобками обозначены явления, наблюдавшиеся между сроками (за 1-3 часа до срока); квадратными скобками обозначены град или гололедные отложения с указанием их диаметра в мм.
Облачность - указаны через наклонную черту общая и нижняя облачность в баллах и высота нижней границы облаков в метрах; квадратными скобками обозначены формы облаков: Ci - перистые, Cs - перисто-слоистые, Cc - перисто-кучевые, Ac - высококучевые, As - высокослоистые, Sc - слоисто-кучевые, Ns - слоисто-дождевые, Cu - кучевые, Cb - кучево-дождевые. Подробнее классификацию облаков см. в Атласе облаков (PDF).
T - Температура воздуха - температура, измеренная на высоте 2 м над землей.
Td - Температура точки росы - температура, при понижении до которой содержащийся в воздухе водяной пар достигнет насыщения.
f - Относительная влажность воздуха - влажноcть воздуха, измеренная на высоте 2 м над землей.
Te - Эффективная температура - температура, которую ощущает одетый по сезону человек в тени. Характеристика душности погоды. При расчете учитывается влияние влажности воздуха и скорости ветра на теплоощущения человека.
Tes - Эффективная температура на солнце - температура, которую ощущает человек, с поправкой на солнечный нагрев. Характеристика знойности погоды. Зависит от высоты солнца над горизонтом, облачности и скорости ветра. Ночью, в пасмурную погоду, а также при ветре 12 м/с и более поправка равна нулю.
P - Атмосферное давление - приведенное к уровню моря атмосферное давление.
Po - Атмосферное давление - измеренное на уровне метеостанции атмосферное давление.
Tmin - Минимальная температура - минимум температуры воздуха на высоте 2 м над землей.
Tmax - Максимальная температура - максимум температуры воздуха на высоте 2 м над землей.
R - Количество осадков - Количество выпавших осадков за период времени, мм. При наведении курсора мыши на число - период времени, за который выпало указанное количество осадков.
R24 - Количество осадков - Количество выпавших осадков за 24 часа, мм.
S - Снежный покров - Высота снежного покрова, см. При наведении курсора мыши на число - состояние снежного покрова и степень покрытия местности в баллах.